[[{"header":{"parameterUnit":"m.s-1","parameterCategory":1,"la1":30.2991,"la2":30.254,"lo1":-89.0895,"lo2":-89.0444,"dy":0.0017,"dx":0.0017,"nx":28,"ny":28,"refTime":"2025-03-11T03:00:00:Z","depth":0,"parameterNumber":2,"parameterNumberName":"U-component_of_WINDS"},"data":[0,0,0,0,0,0,0,0,0,0,0,0,0,0,0,0,0,0,0,0,0,0,0,0,0,0,0,0,0,0,0,0,0,0,0,0,0,0,0,0,0,0,0,0,0,0,0,0,0,0,0,0,0,0,0,0,0,0,1.7158,1.7157,0,1.7149,1.7149,1.7149,1.7021,1.7018,1.7015,1.7012,1.701,1.7013,1.7016,0,0,0,0,0,0,0,0,0,0,0,0,0,1.7067,1.7069,1.7158,1.7157,1.7157,1.7149,1.7149,1.7149,1.7022,1.7018,1.7014,1.701,1.7009,1.7013,1.7016,0,0,0,0,0,0,0,0,0,0,0,0,0,1.7087,1.707,1.7158,1.7093,1.7087,1.7149,1.7149,1.7149,1.7023,1.7018,1.7013,1.7008,1.7008,1.7012,1.7017,1.7143,0,0,1.703,1.7032,0,0,0,0,0,0,0,0,1.7086,1.7091,1.7102,1.7097,1.7091,1.7081,1.7116,1.7147,1.7024,1.7047,1.7011,1.7006,1.7038,1.704,1.7049,1.7143,1.7143,1.7031,1.7034,1.7036,1.7037,0,0,0,0,0,0,0,1.7085,1.7091,1.7154,1.7103,1.7096,1.7065,1.7063,1.7122,1.7071,1.7045,1.7035,1.7036,1.7034,1.7045,1.7048,1.7143,1.7031,1.7035,1.7038,1.7039,1.7338,1.7343,0,0,0,0,0,0,1.7092,1.709,1.7155,1.7154,1.7076,1.7071,1.7068,1.7089,1.7069,1.7062,1.704,1.703,1.704,1.7043,1.7048,1.7194,1.7035,1.704,1.7042,1.7333,1.7339,1.7345,0,0,0,0,0,0,1.709,1.7099,1.7155,1.712,1.7124,1.7078,1.7103,1.7092,1.7103,1.7066,1.7057,1.7061,1.7036,1.7041,1.7119,1.7192,1.7042,1.7046,1.7327,1.7335,1.7342,1.7488,0,0,0,0,0,0,1.7088,1.7099,1.7146,1.7121,1.7127,1.7226,1.7107,1.7095,1.711,1.7097,1.7083,1.7076,1.7033,1.7113,1.7124,1.7196,1.7049,1.732,1.733,1.734,1.7477,1.75,1.752,0,0,0,0,0,1.7086,1.7189,1.7149,1.7158,1.7184,1.7231,1.7234,1.718,1.7116,1.7164,1.7139,1.7076,1.7182,1.7122,1.7133,1.7208,1.7315,1.7327,1.7339,1.7467,1.7495,1.7519,0,0,0,0,0,0,1.7227,1.7185,1.714,1.7239,1.7239,1.7209,1.7267,1.7212,1.7233,1.722,1.7154,1.7152,1.724,1.7231,1.7166,1.7328,1.7237,1.7252,1.7331,1.7358,1.7379,1.7381,1.7053,0,0,0,0,0,1.7269,1.7309,1.727,1.7361,1.7363,1.7315,1.7334,1.7292,1.729,1.7291,1.7272,1.7275,1.7308,1.7332,1.7361,1.7473,1.7469,1.753,1.7551,1.7569,1.7584,1.7642,1.7669,1.7383,1.7383,1.7383,0,0,1.7358,1.734,1.7369,1.7389,1.7384,1.7428,1.7317,1.7368,1.74,1.7299,1.7371,1.7358,1.7356,1.7452,1.7493,1.7447,1.766,1.7584,1.7599,1.7603,1.7657,1.7684,1.7708,1.7391,1.739,1.7389,0,0,1.7542,1.7532,1.7606,1.7602,1.7595,1.7562,1.7579,1.7557,1.7543,1.7614,1.7538,1.7576,1.7635,1.7636,1.7645,1.7826,1.7769,1.7837,1.7952,1.8009,1.8032,1.8051,1.8117,1.8141,1.7851,1.7851,1.7851,0,1.7654,1.7715,1.7651,1.7707,1.7718,1.7624,1.7699,1.7699,1.7704,1.7714,1.7661,1.7731,1.7724,1.7818,1.7862,1.7872,1.7891,1.784,1.8033,1.8052,1.807,1.8131,1.8156,1.7859,1.7858,1.7858,1.7857,0,1.7854,1.7897,1.7958,1.7961,1.7978,1.8043,1.799,1.8016,1.7971,1.7944,1.8016,1.8003,1.8027,1.8046,1.8004,1.8134,1.8106,1.8044,1.7952,1.8106,1.8163,1.8186,1.7872,1.7869,1.7866,1.7864,0,0,1.8131,1.8094,1.8118,1.8117,1.81,1.8134,1.8194,1.8214,1.8238,1.8243,1.8293,1.8343,1.8285,1.8295,1.8252,1.8302,1.8447,1.8234,1.8233,1.8276,1.859,1.8638,1.8667,1.8407,1.8411,1.8415,1.859,0,1.831,1.8409,1.8352,1.8461,1.85,1.8409,1.8462,1.8458,1.8434,1.8464,1.8437,1.8474,1.8394,1.8399,1.8445,1.842,1.851,1.8406,1.8455,1.8458,1.8461,1.8696,1.8748,1.8915,1.8612,1.8616,1.8619,0,1.8532,1.8543,1.8656,1.8629,1.8643,1.8692,1.8705,1.8734,1.8728,1.8706,1.8715,1.866,1.8718,1.8624,1.8705,1.8635,1.8651,1.8642,1.8647,1.8652,1.855,1.8709,1.8966,1.8992,1.8653,1.865,1.8648,0,1.8725,1.8768,1.884,1.8842,1.8813,1.8849,1.8839,1.8826,1.8842,1.8853,1.8863,1.8882,1.8894,1.8911,1.8862,1.8798,1.8949,1.8851,1.8934,1.8936,1.8973,1.8972,1.9239,1.898,1.8979,1.8979,1.8978,0,1.8932,1.9005,1.8926,1.8971,1.9049,1.8981,1.9061,1.9041,1.9031,1.9071,1.8994,1.9034,1.8965,1.8999,1.896,1.9033,1.9038,1.9024,1.9014,1.9032,1.9035,1.9044,1.9032,1.8985,1.8984,1.8983,1.8982,0,1.9163,1.9112,1.9185,1.9149,1.9142,1.9201,1.9172,1.9212,1.918,1.9232,1.924,1.9191,1.9226,1.9177,1.9208,1.9182,1.9282,1.9253,1.9284,1.9277,1.9363,1.9356,1.9647,1.9682,1.9399,1.9402,1.9404,0,1.9299,1.9352,1.9321,1.9341,1.9334,1.9368,1.9382,1.9317,1.9335,1.9329,1.9371,1.9398,1.9417,1.9477,1.9445,1.9468,1.944,1.954,1.9443,1.946,1.9444,1.9442,1.9447,1.9562,1.9565,1.9568,1.957,0,1.9548,1.9519,1.9541,1.9554,1.9572,1.958,1.9582,1.9604,1.9535,1.9559,1.9592,1.9606,1.9635,1.9664,1.9677,1.9668,1.9609,1.96,1.962,1.9642,1.9658,1.9652,1.9341,1.9594,1.9592,1.959,1.9589,1.9588,1.9736,1.9779,1.9763,1.979,1.9783,1.9786,1.9822,1.9793,1.9818,1.9835,1.9795,1.9838,1.9828,1.9839,1.9836,1.987,1.9826,1.9856,1.9864,1.9873,1.9887,1.965,1.9872,1.9871,1.987,1.987,1.9869,0,1.9982,1.9966,1.9991,1.9995,2.0016,1.9953,1.9951,1.9974,2.0012,2.0006,2.0025,2.0062,2.0089,2.0057,2.0078,2.0111,2.0085,2.0119,2.0118,2.0117,1.9924,1.9905,2.0141,2.014,2.014,2.014,2.014,2.014,2.0113,2.0181,2.015,2.0214,2.0198,2.0237,2.0242,2.0244,2.0239,2.0283,2.0304,2.0282,2.0266,2.0285,2.0307,2.0297,2.0309,2.0354,2.0336,2.0157,2.013,2.0105,2.0087,2.0357,2.0357,2.0525,2.0527,2.0528]},{"header":{"parameterUnit":"m.s-1","parameterCategory":1,"la1":30.2991,"la2":30.254,"lo1":-89.0895,"lo2":-89.0444,"dy":0.0017,"dx":0.0017,"nx":28,"ny":28,"refTime":"2025-03-11T03:00:00:Z","depth":0,"parameterNumber":3,"parameterNumberName":"V-component_of_WINDS"},"data":[0,0,0,0,0,0,0,0,0,0,0,0,0,0,0,0,0,0,0,0,0,0,0,0,0,0,0,0,0,0,0,0,0,0,0,0,0,0,0,0,0,0,0,0,0,0,0,0,0,0,0,0,0,0,0,0,0,0,4.6345,4.6345,0,4.636,4.6361,4.6361,4.627,4.6268,4.6265,4.6263,4.6277,4.628,4.6283,0,0,0,0,0,0,0,0,0,0,0,0,0,4.6233,4.6236,4.6345,4.6345,4.6345,4.636,4.6361,4.6361,4.6271,4.6267,4.6264,4.6261,4.6276,4.6279,4.6283,0,0,0,0,0,0,0,0,0,0,0,0,0,4.6269,4.6237,4.6345,4.6302,4.6298,4.636,4.6361,4.6361,4.6271,4.6267,4.6263,4.626,4.6275,4.6279,4.6283,4.6387,0,0,4.6296,4.6298,0,0,0,0,0,0,0,0,4.6267,4.6273,4.6308,4.6305,4.6301,4.6309,4.6327,4.637,4.6272,4.6281,4.6262,4.6258,4.6291,4.6294,4.6305,4.6387,4.6388,4.6296,4.6299,4.6301,4.6302,0,0,0,0,0,0,0,4.6265,4.6272,4.6351,4.6309,4.6304,4.6281,4.6282,4.6334,4.6308,4.628,4.6274,4.6277,4.6288,4.6301,4.6305,4.6388,4.6296,4.63,4.6303,4.6304,4.6554,4.6558,0,0,0,0,0,0,4.6268,4.627,4.635,4.6351,4.6274,4.6286,4.6287,4.6311,4.6307,4.6303,4.628,4.6273,4.6296,4.63,4.6305,4.6424,4.6301,4.6305,4.6307,4.655,4.6555,4.656,0,0,0,0,0,0,4.6266,4.6276,4.635,4.6309,4.6317,4.6292,4.6319,4.6313,4.6326,4.6307,4.6301,4.6299,4.6293,4.6299,4.6367,4.6423,4.6307,4.631,4.6545,4.6552,4.6557,4.6665,0,0,0,0,0,0,4.6263,4.6276,4.6316,4.6311,4.6319,4.6412,4.6323,4.6316,4.6333,4.6324,4.6323,4.6319,4.629,4.6361,4.6371,4.6427,4.6314,4.654,4.6548,4.6555,4.6656,4.6674,4.6689,0,0,0,0,0,4.626,4.6345,4.6318,4.6328,4.6369,4.6416,4.6421,4.6387,4.6338,4.6377,4.6365,4.6319,4.6416,4.6369,4.6379,4.6437,4.6536,4.6546,4.6555,4.6648,4.667,4.6688,0,0,0,0,0,0,4.6358,4.6344,4.6314,4.6401,4.641,4.6401,4.6449,4.6411,4.6434,4.6424,4.6381,4.6381,4.6456,4.6453,4.6401,4.6536,4.6467,4.6479,4.6535,4.6555,4.6572,4.657,4.6317,0,0,0,0,0,4.639,4.643,4.6415,4.6493,4.65,4.6474,4.6493,4.6466,4.6474,4.6478,4.647,4.6479,4.6511,4.6533,4.6562,4.6655,4.6653,4.67,4.6717,4.6731,4.6741,4.6788,4.6808,4.659,4.659,4.659,0,0,4.6456,4.6453,4.6481,4.6513,4.6517,4.6559,4.6478,4.6526,4.6556,4.6485,4.6548,4.6543,4.655,4.663,4.6665,4.663,4.6801,4.6742,4.6753,4.6756,4.68,4.682,4.6839,4.6596,4.6595,4.6594,0,0,4.6597,4.66,4.6664,4.667,4.6677,4.6659,4.6675,4.6671,4.6664,4.6727,4.6674,4.6709,4.6766,4.6773,4.6783,4.6926,4.6883,4.6937,4.7023,4.7069,4.7086,4.7101,4.7151,4.7169,4.6947,4.6948,4.6948,0,4.6677,4.6739,4.6702,4.6753,4.6768,4.6705,4.6769,4.6777,4.6793,4.6804,4.6765,4.6834,4.6835,4.6915,4.695,4.6961,4.6976,4.6936,4.7087,4.7102,4.7115,4.7161,4.718,4.6954,4.6953,4.6952,4.6952,0,4.6837,4.688,4.6931,4.6948,4.6969,4.7026,4.6997,4.7022,4.6993,4.6979,4.7043,4.7041,4.7068,4.7085,4.7058,4.7161,4.7139,4.7095,4.7024,4.7143,4.7186,4.7203,4.6963,4.6961,4.6959,4.6957,0,0,4.704,4.7035,4.7055,4.7061,4.7064,4.7096,4.715,4.7176,4.7198,4.7211,4.7254,4.7304,4.7262,4.7274,4.7247,4.7288,4.7399,4.7237,4.7237,4.7266,4.7511,4.7543,4.7565,4.7371,4.7374,4.7377,4.7509,0,4.7177,4.7269,4.7236,4.733,4.7368,4.7309,4.7356,4.7362,4.7351,4.7381,4.7367,4.7402,4.7345,4.7352,4.739,4.7377,4.7447,4.7367,4.7409,4.7411,4.7408,4.7587,4.7622,4.7747,4.7526,4.7529,4.7531,0,4.7348,4.7368,4.7466,4.746,4.7475,4.7518,4.7538,4.7568,4.7574,4.7562,4.7576,4.7539,4.759,4.7522,4.7591,4.7537,4.7553,4.7549,4.7553,4.7554,4.7477,4.7592,4.7787,4.7805,4.7557,4.7555,4.7553,0,4.7485,4.7536,4.76,4.7607,4.7604,4.7635,4.7634,4.7636,4.7653,4.7671,4.7681,4.7706,4.7718,4.7737,4.7707,4.766,4.778,4.7709,4.7771,4.7772,4.7798,4.7796,4.7996,4.7811,4.7811,4.781,4.781,0,4.7639,4.7701,4.7661,4.77,4.7767,4.7729,4.7795,4.7789,4.7791,4.7827,4.7778,4.7813,4.7772,4.7803,4.778,4.784,4.7847,4.7838,4.7831,4.7841,4.7842,4.785,4.784,4.7815,4.7814,4.7813,4.7812,0,4.7803,4.7778,4.7844,4.7835,4.7834,4.7883,4.7875,4.791,4.7895,4.7941,4.795,4.7926,4.7959,4.7932,4.7965,4.7949,4.8028,4.801,4.8027,4.8021,4.8083,4.8077,4.8294,4.8319,4.8119,4.8121,4.8123,0,4.7902,4.7948,4.7943,4.7964,4.7967,4.8001,4.8018,4.7983,4.8002,4.8011,4.8046,4.8075,4.8097,4.8153,4.8138,4.8163,4.8143,4.8217,4.8146,4.8155,4.8142,4.8139,4.8143,4.8231,4.8234,4.8235,4.8237,0,4.8081,4.8067,4.8093,4.8116,4.8138,4.8154,4.8166,4.8185,4.8148,4.8173,4.8207,4.8224,4.8257,4.8286,4.8306,4.8304,4.8265,4.826,4.8275,4.8285,4.8292,4.8288,4.8064,4.8254,4.8253,4.8251,4.8251,4.825,4.8214,4.8251,4.8253,4.8284,4.829,4.8302,4.8334,4.8322,4.835,4.8374,4.8351,4.8392,4.8395,4.8417,4.842,4.8451,4.842,4.8443,4.8448,4.8454,4.8462,4.8289,4.8455,4.8454,4.8453,4.8453,4.8453,0,4.8389,4.8387,4.8416,4.8434,4.8458,4.8419,4.843,4.8452,4.8488,4.8495,4.8517,4.8555,4.8583,4.857,4.8594,4.8621,4.8603,4.8629,4.8625,4.8626,4.8489,4.8472,4.8643,4.8643,4.8643,4.8643,4.8643,4.8642,4.8482,4.8542,4.8528,4.859,4.8587,4.8627,4.8636,4.8646,4.8651,4.8696,4.8719,4.871,4.8708,4.8732,4.8756,4.8751,4.8761,4.8793,4.8782,4.8654,4.8635,4.8617,4.8602,4.8796,4.8796,4.8916,4.8917,4.8918]}]]